• Processing (Info)

  • MPEC 2021-H131 : 2014 MV2

    The following Minor Planet Electronic Circular may be linked-to from your own Web pages, but must not otherwise be redistributed electronically.

    A form allowing access to any MPEC is at the bottom of this page.


    Read MPEC 2021-H130 Read MPEC 2021-H132


    M.P.E.C. 2021-H131                               Issued 2021 April 24, 15:31 UT
    
         The Minor Planet Electronic Circulars contain information on unusual
             minor planets and routine data on comets.  They are published
        on behalf of Division F of the International Astronomical Union by the
              Minor Planet Center, Smithsonian Astrophysical Observatory,
                              Cambridge, MA 02138, U.S.A.
    
                 Prepared using the Tamkin Foundation Computer Network
    
                                  MPC@CFA.HARVARD.EDU
                URL https://www.minorplanetcenter.net/    ISSN 1523-6714
    
                                    2014 MV2                                 
    
    
                               Revision to MPEC 2014-M19                            
    
    Additional Observations:
         K14M02V  C2017 09 22.47095602 20 53.094-05 07 58.28         22.66GVEH131F51
         K14M02V  C2017 09 22.47546302 20 52.795-05 08 00.50         22.51GVEH131F51
         K14M02V  C2017 09 22.48335602 20 52.320-05 08 03.56         22.70GVEH131F51
         K14M02V  C2017 09 22.48785202 20 52.039-05 08 05.17         21.91GVEH131F51
         K14M02V  C2017 09 22.49579902 20 51.585-05 08 08.41         22.92GVEH131F51
         K14M02V  C2017 10 11.46252201 57 43.740-06 50 22.11         23.02GVEH131F51
         K14M02V  C2017 10 11.47490601 57 42.699-06 50 25.17         21.82GVEH131F51
         K14M02V  C2017 10 11.49966301 57 40.510-06 50 30.54         22.36GVEH131F51
         K14M02V  C2017 10 21.44302301 43 51.694-07 15 51.68         22.37GVEH131F51
         K14M02V  C2017 10 21.51187401 43 45.942-07 15 56.70         22.77GVEH131F51
    
    Observer details:
    F51 Pan-STARRS 1, Haleakala.  Observers J. Bulger, K. Chambers, T. Lowe, A.
        Schultz, I. Smith.  Measurers S. Chastel, M. Huber, Y. Ramanjooloo, R.
        Wainscoat, R. Weryk.  1.8-m Ritchey-Chretien + CCD.
    
    First and last observations above in comparison with prediction:
    Residuals in seconds of arc, reference and Delta-T
    170922 F51 50.8+ 33.2+    171021 F51 55.4+ 30.5+    MPO477735   +0.05 days
    
    Orbital elements:
    2014 MV2                                                 Earth MOID = 0.2657 AU
    Epoch 2020 Dec. 17.0 TT = JDT 2459200.5                 Veres                   
    M 163.53562              (2000.0)            P               Q                  
    n   0.37530054     Peri.  178.91560     -0.20428694     +0.96104973             
    a   1.9034870      Node    79.27693     -0.89955352     -0.10930052             
    e   0.3262533      Incl.   10.92093     -0.38609624     -0.25384408             
    P   2.63           H   20.06          G   0.15           U   2                  
    Residuals in seconds of arc
    140325 F51  0.0   0.3-    140620 291  0.0   0.1-    140718 807  0.0   0.1-
    140325 F51  0.0   0.0     140620 291  0.1-  0.7-    140718 807  0.0   0.4-
    140325 F51  0.1-  0.0     140620 291  0.0   0.0     140718 807  0.1+  0.0
    140327 G96  0.1-  0.4+    140621 H36  0.8+  0.8-    140719 807  0.4-  0.1+
    140327 G96  0.2+  0.1+    140621 H36  0.9+  0.4-    140719 807  0.4-  0.1+
    140327 G96  0.2-  0.0     140621 291  1.0+  0.1-    140719 807  0.0   0.1+
    140327 G96  0.3-  0.2+    140621 291  0.4-  0.4-    140816 474  0.0   0.1-
    140420 F51 (0.2+  0.7-)   140621 291  0.1+  0.2-    140816 474  0.1+  0.5+
    140529 F51  0.0   0.1+    140623 291  0.1+  0.3-    140816 474  0.5-  0.3-
    140529 F51  0.1-  0.1+    140623 291  0.1+  0.2+    170922 F51  0.1+  0.3+
    140617 F51  0.1+  0.2-    140623 291  0.3+  0.3-    170922 F51  0.3-  0.1-
    140617 F51  0.1+  0.1-    140628 474  0.4-  0.1+    170922 F51  0.2-  0.2-
    140617 F51  0.1+  0.3-    140628 474  0.1+  0.1+    170922 F51  0.3-  0.0
    140617 F51  0.0   0.1+    140628 474  0.2+  0.5+    170922 F51  0.1+  0.2-
    140617 W86  0.1+  0.1+    140628 474  0.1+  0.4+    171011 F51  0.2-  0.2+
    140617 W86  0.0   0.4+    140629 F51  0.1-  0.0     171011 F51  0.2+  0.1-
    140617 W86  0.1+  0.1+    140629 F51  0.1-  0.0     171011 F51  0.5-  0.1+
    140619 H21  0.3+  0.8-    140629 F51  0.0   0.1+    171021 F51 (0.7-  0.2-)
    140619 H21  0.3+  1.1-    140629 F51  0.0   0.1+    171021 F51  0.3+  0.3-
    
    Ephemeris:
    2014 MV2                 a,e,i = 1.90, 0.33, 11                  q = 1.2825
    Date    TT    R. A. (2000) Decl.     Delta      r    Elong.  Phase     V
    2021 03 25    04 23 56.1 +23 18 27   2.7776  2.5023    63.8    20.9    25.3
    ...
    2021 04 09    04 45 16.5 +24 24 34   2.9417  2.4884    54.0    19.0    25.4
    ...
    2021 04 17    04 57 37.4 +24 56 01   3.0195  2.4795    49.0    17.8    25.4
    ...
    2021 04 23    05 07 16.1 +25 17 27   3.0729  2.4722    45.4    16.8    25.4
    2021 04 24    05 08 54.3 +25 20 49   3.0814  2.4710    44.8    16.7    25.4
    2021 04 25    05 10 33.1 +25 24 08   3.0897  2.4697    44.2    16.5    25.4
    ...
    2021 05 01    05 20 35.2 +25 42 44   3.1373  2.4617    40.6    15.5    25.3
    ...
    2021 05 09    05 34 22.9 +26 03 56   3.1936  2.4502    36.0    14.0    25.3
    ...
    2021 05 24    06 01 21.9 +26 31 19   3.2765  2.4260    27.7    11.2    25.3
    
    A. U. Tomatic                (C) Copyright 2021 MPC           M.P.E.C. 2021-H131
    


    Read MPEC 2021-H130 Read MPEC 2021-H132


    MPEC number:

    Enter an MPEC number in one of the following forms:

    • 1997-B01 (the full form)
    • J97B01 (the packed version of the full form)
    • B01 (the abbreviated form)